Location: Hannover
(52.3723°N, 9.7339°E)
Time: 23:41:59
(UTC+01:00)

Envisat - Visible Passes

Search period start: 21 January 2018 00:00
Search period end: 31 January 2018 00:00
Orbit: 764 x 766 km, 98.2° (Epoch: 21 January)

Date Brightness Start Highest point End Pass type
(mag) Time Alt. Az. Time Alt. Az. Time Alt. Az.
21 Jan 4.8 17:31:49 10° ENE 17:33:23 11° NE 17:34:58 10° NNE visible
21 Jan 3.1 19:10:37 47° E 19:11:20 51° ENE 19:16:16 10° N visible
21 Jan 4.8 20:50:47 28° W 20:50:47 28° W 20:54:59 10° NW visible
22 Jan 6.2 07:11:40 10° ENE 07:13:13 11° E 07:14:47 10° E visible
22 Jan 3.8 18:33:12 24° E 18:34:51 28° ENE 18:39:11 10° N visible
22 Jan 3.6 20:13:23 53° WSW 20:13:38 54° W 20:18:39 10° NNW visible
23 Jan 4.4 17:55:47 11° E 17:58:34 17° NE 18:01:43 10° NNE visible
23 Jan 2.8 19:35:58 61° SE 19:36:51 80° ENE 19:41:58 10° NNW visible
23 Jan 5.4 21:16:09 18° W 21:16:31 18° W 21:19:56 10° NW visible
24 Jan 5.8 07:35:42 10° NE 07:39:14 18° E 07:42:43 10° SE visible
24 Jan 3.3 18:58:32 32° ESE 19:00:15 43° ENE 19:05:03 10° N visible
24 Jan 4.5 20:38:43 32° WSW 20:39:24 34° W 20:44:01 10° NNW visible
25 Jan 4.0 18:21:06 16° E 18:23:50 24° ENE 18:27:53 10° N visible
25 Jan 3.3 20:01:17 49° SSW 20:02:29 65° WSW 20:07:33 10° NNW visible
25 Jan 5.9 21:41:28 10° W 21:42:31 11° W 21:43:45 10° WNW visible
26 Jan 4.6 17:44:58 10° E 17:47:36 14° NE 17:50:14 10° NNE visible
26 Jan 2.9 19:23:50 38° SE 19:25:44 67° ENE 19:30:49 10° N visible
26 Jan 5.2 21:04:02 20° WSW 21:05:14 22° W 21:09:08 10° NW visible
27 Jan 5.9 07:25:00 10° NE 07:27:56 15° E 07:30:51 10° ESE visible
27 Jan 3.5 18:46:24 20° ESE 18:49:11 36° ENE 18:53:49 10° N visible
27 Jan 4.1 20:26:34 32° SW 20:28:11 41° W 20:33:00 10° NNW visible
28 Jan 4.2 18:09:07 10° ESE 18:12:50 21° NE 18:16:33 10° N visible
28 Jan 3.0 19:49:07 35° S 19:51:19 79° WSW 19:56:27 10° NNW visible
28 Jan 5.8 21:29:18 11° WSW 21:31:12 13° W 21:33:41 10° NW visible
29 Jan 4.8 17:34:42 10° ENE 17:36:39 12° NE 17:38:35 10° NNE visible
29 Jan 3.0 19:11:39 23° SE 19:14:38 55° ENE 19:19:37 10° N visible
29 Jan 4.9 20:51:49 20° SW 20:53:59 26° W 20:58:15 10° NW visible
30 Jan 6.1 07:14:32 10° ENE 07:16:38 12° E 07:18:42 10° ESE visible
30 Jan 3.7 18:34:10 12° ESE 18:38:09 30° ENE 18:42:34 10° N visible
30 Jan 3.8 20:14:21 26° SSW 20:16:59 50° W 20:21:57 10° NNW visible
